[[{"header":{"parameterUnit":"m.s-1","parameterCategory":1,"la1":30.2991,"la2":30.254,"lo1":-89.0895,"lo2":-89.0444,"dy":0.0017,"dx":0.0017,"nx":28,"ny":28,"refTime":"2024-10-20T21:00:00:Z","depth":0,"parameterNumber":2,"parameterNumberName":"U-component_of_WINDS"},"data":[0,0,0,0,0,0,0,0,0,0,0,0,0,0,0,0,0,0,0,0,0,0,0,0,0,0,0,0,0,0,0,0,0,0,0,0,0,0,0,0,0,0,0,0,0,0,0,0,0,0,0,0,0,0,0,0,0,0,-1.4037,-1.4036,0,-1.3981,-1.398,-1.3979,-1.3876,-1.3874,-1.3872,-1.387,-1.3815,-1.3816,-1.3816,0,0,0,0,0,0,0,0,0,0,0,0,0,-1.4057,-1.4057,-1.4037,-1.4036,-1.4035,-1.3981,-1.398,-1.3979,-1.3876,-1.3874,-1.3871,-1.3869,-1.3815,-1.3816,-1.3816,0,0,0,0,0,0,0,0,0,0,0,0,0,-1.4029,-1.4057,-1.4037,-1.3977,-1.3971,-1.3981,-1.398,-1.3979,-1.3877,-1.3874,-1.3871,-1.3868,-1.3815,-1.3816,-1.3816,-1.388,0,0,-1.3818,-1.3818,0,0,0,0,0,0,0,0,-1.4031,-1.4029,-1.3987,-1.3981,-1.3975,-1.3932,-1.3967,-1.3946,-1.3877,-1.3913,-1.387,-1.3866,-1.3857,-1.3854,-1.385,-1.3878,-1.3876,-1.3818,-1.3819,-1.3819,-1.3819,0,0,0,0,0,0,0,-1.4033,-1.4031,-1.4015,-1.3986,-1.3979,-1.3954,-1.3947,-1.3963,-1.3902,-1.3909,-1.3902,-1.3896,-1.3853,-1.385,-1.3848,-1.3875,-1.3818,-1.3819,-1.3819,-1.3819,-1.3953,-1.3956,0,0,0,0,0,0,-1.4043,-1.4033,-1.4016,-1.4013,-1.3996,-1.3956,-1.3948,-1.3949,-1.3902,-1.3892,-1.3899,-1.3892,-1.385,-1.3847,-1.3846,-1.3918,-1.3819,-1.382,-1.382,-1.395,-1.3953,-1.3957,0,0,0,0,0,0,-1.4044,-1.4043,-1.4019,-1.4021,-1.4016,-1.3959,-1.3961,-1.3949,-1.3946,-1.3894,-1.3883,-1.3906,-1.3848,-1.3845,-1.3872,-1.3915,-1.382,-1.382,-1.3946,-1.3951,-1.3955,-1.4064,0,0,0,0,0,0,-1.4045,-1.4044,-1.4067,-1.4022,-1.4016,-1.4046,-1.3963,-1.395,-1.3947,-1.3937,-1.3898,-1.3889,-1.3845,-1.3872,-1.3873,-1.3914,-1.3821,-1.3942,-1.3948,-1.3954,-1.4057,-1.4072,-1.4085,0,0,0,0,0,-1.4046,-1.4101,-1.4069,-1.4068,-1.4044,-1.4049,-1.4045,-1.3993,-1.3951,-1.3974,-1.3941,-1.389,-1.391,-1.3876,-1.3876,-1.3918,-1.3939,-1.3946,-1.3953,-1.405,-1.4069,-1.4085,0,0,0,0,0,0,-1.4154,-1.4094,-1.4058,-1.4099,-1.408,-1.4031,-1.4059,-1.4015,-1.4008,-1.3999,-1.3934,-1.3927,-1.3963,-1.3943,-1.3906,-1.3978,-1.3916,-1.3924,-1.399,-1.4007,-1.4022,-1.4027,-1.3821,0,0,0,0,0,-1.4182,-1.419,-1.4137,-1.4179,-1.4171,-1.4117,-1.4117,-1.4078,-1.4056,-1.4048,-1.4016,-1.3997,-1.3999,-1.4002,-1.4,-1.4052,-1.4043,-1.4081,-1.4096,-1.4108,-1.4116,-1.4142,-1.4159,-1.398,-1.398,-1.398,0,0,-1.4241,-1.4209,-1.4218,-1.4199,-1.418,-1.4191,-1.4111,-1.4125,-1.4133,-1.405,-1.4074,-1.4051,-1.4025,-1.4066,-1.4082,-1.405,-1.4163,-1.4117,-1.4127,-1.4128,-1.4151,-1.4168,-1.4184,-1.3985,-1.3984,-1.3983,0,0,-1.4354,-1.433,-1.4362,-1.4344,-1.4315,-1.4278,-1.4286,-1.4244,-1.4225,-1.4248,-1.4186,-1.4194,-1.4199,-1.4183,-1.4176,-1.4283,-1.4236,-1.4284,-1.436,-1.4387,-1.4401,-1.4413,-1.4453,-1.4467,-1.4292,-1.4292,-1.4292,0,-1.4431,-1.4444,-1.4385,-1.4403,-1.4397,-1.4321,-1.4354,-1.4339,-1.4312,-1.431,-1.4274,-1.4278,-1.4255,-1.4291,-1.4317,-1.4313,-1.4321,-1.4289,-1.4403,-1.4415,-1.4426,-1.4463,-1.4477,-1.4298,-1.4297,-1.4297,-1.4296,0,-1.4541,-1.4551,-1.458,-1.4555,-1.4552,-1.4578,-1.4523,-1.4527,-1.4488,-1.4456,-1.4481,-1.4451,-1.4443,-1.4448,-1.441,-1.4479,-1.446,-1.4415,-1.4352,-1.445,-1.4484,-1.4497,-1.4307,-1.4304,-1.4303,-1.4301,0,0,-1.4722,-1.4662,-1.4674,-1.4662,-1.4624,-1.4631,-1.4653,-1.4644,-1.4649,-1.4633,-1.4651,-1.4656,-1.4613,-1.4605,-1.4565,-1.4588,-1.4676,-1.454,-1.4538,-1.4568,-1.4751,-1.4787,-1.4805,-1.4644,-1.4647,-1.4649,-1.4754,0,-1.4828,-1.4862,-1.4809,-1.4856,-1.4865,-1.4792,-1.4811,-1.4791,-1.4761,-1.4765,-1.4732,-1.4737,-1.468,-1.4675,-1.4695,-1.4662,-1.4713,-1.4653,-1.4662,-1.4663,-1.4673,-1.4822,-1.486,-1.4961,-1.4767,-1.4769,-1.477,0,-1.4956,-1.4945,-1.4993,-1.4952,-1.4954,-1.4972,-1.496,-1.4964,-1.4939,-1.4916,-1.4907,-1.4858,-1.4878,-1.4816,-1.4843,-1.4804,-1.4804,-1.4789,-1.4791,-1.4792,-1.4724,-1.4828,-1.4992,-1.5008,-1.479,-1.4789,-1.4787,0,-1.5086,-1.5082,-1.511,-1.5102,-1.5054,-1.5069,-1.505,-1.5022,-1.502,-1.5009,-1.5008,-1.4999,-1.4996,-1.4991,-1.4942,-1.4901,-1.4976,-1.4909,-1.4958,-1.496,-1.4979,-1.4979,-1.5147,-1.4976,-1.4976,-1.4976,-1.4976,0,-1.5211,-1.5243,-1.5168,-1.5186,-1.522,-1.5159,-1.5195,-1.5168,-1.5144,-1.5156,-1.5092,-1.5105,-1.5039,-1.5044,-1.5006,-1.5035,-1.5034,-1.5016,-1.5006,-1.5023,-1.5026,-1.5024,-1.5017,-1.498,-1.4979,-1.4978,-1.4978,0,-1.5362,-1.5312,-1.5338,-1.5291,-1.5279,-1.5307,-1.5267,-1.5282,-1.5247,-1.5263,-1.5263,-1.521,-1.5213,-1.5164,-1.5158,-1.5132,-1.5179,-1.5155,-1.5188,-1.5181,-1.5233,-1.523,-1.5408,-1.5429,-1.5244,-1.5245,-1.5247,0,-1.5446,-1.5469,-1.5423,-1.5426,-1.541,-1.5416,-1.5413,-1.5354,-1.5354,-1.5327,-1.5346,-1.5343,-1.5339,-1.5348,-1.5309,-1.5304,-1.5281,-1.5344,-1.528,-1.5297,-1.5284,-1.5285,-1.5287,-1.5358,-1.536,-1.5362,-1.5364,0,-1.5601,-1.5575,-1.5573,-1.5563,-1.5561,-1.5551,-1.5536,-1.5542,-1.5477,-1.548,-1.5483,-1.5479,-1.5472,-1.5472,-1.546,-1.544,-1.5393,-1.5384,-1.5395,-1.5414,-1.5432,-1.5425,-1.5226,-1.5381,-1.5379,-1.5378,-1.5377,-1.5376,-1.5722,-1.5739,-1.571,-1.571,-1.5692,-1.568,-1.5692,-1.5658,-1.5659,-1.5649,-1.5613,-1.5622,-1.5597,-1.5575,-1.556,-1.5567,-1.5536,-1.5552,-1.5557,-1.5562,-1.5573,-1.543,-1.5564,-1.5564,-1.5563,-1.5563,-1.5562,0,-1.5875,-1.5852,-1.5853,-1.5834,-1.5834,-1.5787,-1.5768,-1.5772,-1.578,-1.576,-1.5756,-1.576,-1.5758,-1.5719,-1.5713,-1.5726,-1.5704,-1.5727,-1.5727,-1.5723,-1.56,-1.5591,-1.5745,-1.5745,-1.5745,-1.5745,-1.5745,-1.5745,-1.5955,-1.5982,-1.5953,-1.5971,-1.5948,-1.5956,-1.5949,-1.5938,-1.5921,-1.5928,-1.5926,-1.59,-1.5872,-1.5864,-1.5861,-1.585,-1.5852,-1.5883,-1.5864,-1.575,-1.5732,-1.5715,-1.5707,-1.5883,-1.5883,-1.5987,-1.5988,-1.5989]},{"header":{"parameterUnit":"m.s-1","parameterCategory":1,"la1":30.2991,"la2":30.254,"lo1":-89.0895,"lo2":-89.0444,"dy":0.0017,"dx":0.0017,"nx":28,"ny":28,"refTime":"2024-10-20T21:00:00:Z","depth":0,"parameterNumber":3,"parameterNumberName":"V-component_of_WINDS"},"data":[0,0,0,0,0,0,0,0,0,0,0,0,0,0,0,0,0,0,0,0,0,0,0,0,0,0,0,0,0,0,0,0,0,0,0,0,0,0,0,0,0,0,0,0,0,0,0,0,0,0,0,0,0,0,0,0,0,0,-2.7876,-2.7877,0,-2.7974,-2.7975,-2.7976,-2.7979,-2.7978,-2.7976,-2.7975,-2.8072,-2.8076,-2.8079,0,0,0,0,0,0,0,0,0,0,0,0,0,-2.7689,-2.7692,-2.7876,-2.7877,-2.7878,-2.7974,-2.7975,-2.7976,-2.7979,-2.7978,-2.7976,-2.7975,-2.8071,-2.8075,-2.808,0,0,0,0,0,0,0,0,0,0,0,0,0,-2.7776,-2.7693,-2.7876,-2.7891,-2.7893,-2.7974,-2.7975,-2.7977,-2.7979,-2.7977,-2.7976,-2.7974,-2.807,-2.8075,-2.808,-2.815,0,0,-2.8097,-2.81,0,0,0,0,0,0,0,0,-2.7772,-2.7783,-2.7888,-2.789,-2.7893,-2.7962,-2.7945,-2.8035,-2.798,-2.7947,-2.7975,-2.7973,-2.8037,-2.8045,-2.8067,-2.8155,-2.8159,-2.8098,-2.8101,-2.8104,-2.8105,0,0,0,0,0,0,0,-2.7765,-2.7779,-2.7914,-2.7889,-2.7892,-2.7893,-2.7903,-2.7962,-2.8,-2.7949,-2.795,-2.7962,-2.8038,-2.8062,-2.8069,-2.8161,-2.8098,-2.8103,-2.8106,-2.8108,-2.8312,-2.8314,0,0,0,0,0,0,-2.7757,-2.7774,-2.7911,-2.7917,-2.7827,-2.7897,-2.7909,-2.7942,-2.8,-2.8007,-2.7963,-2.7961,-2.8053,-2.8063,-2.8073,-2.816,-2.8104,-2.8109,-2.8112,-2.831,-2.8313,-2.8315,0,0,0,0,0,0,-2.7753,-2.7769,-2.7907,-2.7846,-2.7864,-2.7903,-2.7939,-2.7945,-2.7969,-2.801,-2.8017,-2.798,-2.8052,-2.8065,-2.8132,-2.8163,-2.8111,-2.8116,-2.8308,-2.8311,-2.8314,-2.8333,0,0,0,0,0,0,-2.7747,-2.7767,-2.7795,-2.7847,-2.7867,-2.7965,-2.7941,-2.7948,-2.7979,-2.7977,-2.8028,-2.8035,-2.8052,-2.8123,-2.8137,-2.817,-2.8121,-2.8305,-2.8309,-2.8313,-2.833,-2.8336,-2.8342,0,0,0,0,0,-2.7741,-2.7795,-2.7796,-2.7813,-2.7902,-2.7967,-2.7979,-2.7998,-2.7981,-2.8009,-2.8036,-2.8033,-2.8157,-2.813,-2.8146,-2.818,-2.8303,-2.8308,-2.8312,-2.8327,-2.8335,-2.8342,0,0,0,0,0,0,-2.7744,-2.7802,-2.7804,-2.7877,-2.7917,-2.7967,-2.8003,-2.8006,-2.805,-2.8047,-2.8068,-2.808,-2.8146,-2.817,-2.8138,-2.8252,-2.8228,-2.8236,-2.8234,-2.8242,-2.8248,-2.8241,-2.8125,0,0,0,0,0,-2.7754,-2.7803,-2.785,-2.791,-2.7931,-2.7963,-2.7992,-2.8004,-2.8046,-2.8062,-2.8094,-2.8134,-2.8182,-2.8213,-2.826,-2.8333,-2.8345,-2.8365,-2.8371,-2.8376,-2.8382,-2.8424,-2.8434,-2.833,-2.833,-2.833,0,0,-2.7774,-2.7812,-2.7841,-2.7912,-2.7945,-2.7994,-2.7977,-2.803,-2.8067,-2.807,-2.8135,-2.816,-2.8206,-2.8277,-2.831,-2.8299,-2.8414,-2.8382,-2.8385,-2.8389,-2.843,-2.844,-2.8448,-2.8333,-2.8333,-2.8332,0,0,-2.7835,-2.7869,-2.7923,-2.7957,-2.8007,-2.8029,-2.8042,-2.8092,-2.8109,-2.8175,-2.8179,-2.8223,-2.8305,-2.8338,-2.8366,-2.8442,-2.8442,-2.8456,-2.8488,-2.8529,-2.8537,-2.8544,-2.8572,-2.8581,-2.8463,-2.8463,-2.8463,0,-2.7853,-2.7929,-2.795,-2.8004,-2.8035,-2.8042,-2.8097,-2.8128,-2.8191,-2.8212,-2.8199,-2.8304,-2.8335,-2.8414,-2.8433,-2.8455,-2.8471,-2.845,-2.8534,-2.8542,-2.8549,-2.8575,-2.8586,-2.8464,-2.8464,-2.8464,-2.8464,0,-2.7949,-2.8002,-2.8039,-2.8101,-2.8137,-2.8191,-2.822,-2.8253,-2.8262,-2.8285,-2.8353,-2.8391,-2.8446,-2.8466,-2.8474,-2.8547,-2.8539,-2.853,-2.8506,-2.856,-2.8585,-2.8596,-2.8467,-2.8466,-2.8466,-2.8465,0,0,-2.8014,-2.8089,-2.8102,-2.8131,-2.8188,-2.8228,-2.8283,-2.8338,-2.8367,-2.841,-2.8456,-2.8526,-2.8519,-2.8551,-2.8563,-2.8599,-2.8657,-2.8586,-2.8587,-2.8598,-2.874,-2.8746,-2.8758,-2.8658,-2.866,-2.8662,-2.8736,0,-2.8082,-2.8181,-2.8202,-2.8286,-2.8335,-2.8344,-2.8391,-2.8431,-2.8454,-2.8499,-2.8524,-2.8574,-2.856,-2.858,-2.8615,-2.8643,-2.8686,-2.8638,-2.8701,-2.8703,-2.8689,-2.8771,-2.8777,-2.8846,-2.8746,-2.8748,-2.8749,0,-2.8174,-2.8222,-2.8311,-2.8363,-2.8384,-2.8427,-2.848,-2.8523,-2.8568,-2.8582,-2.8619,-2.8628,-2.8685,-2.8659,-2.8738,-2.8704,-2.8731,-2.8749,-2.8752,-2.8758,-2.8729,-2.878,-2.8868,-2.8879,-2.8765,-2.8764,-2.8763,0,-2.8214,-2.8299,-2.8365,-2.8389,-2.8451,-2.848,-2.8507,-2.8551,-2.8584,-2.863,-2.8651,-2.8703,-2.8731,-2.877,-2.8793,-2.8772,-2.887,-2.8846,-2.8884,-2.8883,-2.8903,-2.8902,-2.8998,-2.8921,-2.8921,-2.8921,-2.892,0,-2.8287,-2.8342,-2.8383,-2.8423,-2.8485,-2.8509,-2.8569,-2.8596,-2.8635,-2.868,-2.869,-2.8732,-2.876,-2.8806,-2.8824,-2.8887,-2.8899,-2.8912,-2.8916,-2.8911,-2.891,-2.8929,-2.8925,-2.8923,-2.8923,-2.8922,-2.8922,0,-2.8341,-2.8371,-2.8443,-2.8496,-2.8511,-2.8554,-2.8599,-2.8638,-2.8663,-2.872,-2.8734,-2.8772,-2.8827,-2.8854,-2.8921,-2.8933,-2.9005,-2.9005,-2.899,-2.8991,-2.9027,-2.9024,-2.9139,-2.9156,-2.9068,-2.9068,-2.9069,0,-2.8386,-2.8428,-2.8487,-2.8519,-2.8547,-2.8597,-2.8631,-2.8657,-2.8691,-2.8747,-2.878,-2.8835,-2.8881,-2.8968,-2.9001,-2.9053,-2.9055,-2.9092,-2.9063,-2.9057,-2.9056,-2.9054,-2.9058,-2.9097,-2.9098,-2.9099,-2.9099,0,-2.8462,-2.8476,-2.8524,-2.8579,-2.8619,-2.8663,-2.8706,-2.8731,-2.8764,-2.8802,-2.8859,-2.8895,-2.8965,-2.902,-2.9075,-2.9102,-2.9106,-2.9109,-2.912,-2.9115,-2.9105,-2.9111,-2.9004,-2.9106,-2.9105,-2.9104,-2.9104,-2.9104,-2.8513,-2.8552,-2.86,-2.8654,-2.869,-2.873,-2.877,-2.88,-2.8849,-2.8909,-2.8921,-2.8981,-2.9027,-2.9101,-2.913,-2.9177,-2.9169,-2.9186,-2.919,-2.9193,-2.9196,-2.9097,-2.9187,-2.9187,-2.9187,-2.9187,-2.9187,0,-2.8591,-2.8622,-2.8672,-2.8733,-2.8776,-2.8778,-2.8827,-2.8862,-2.8916,-2.8958,-2.9004,-2.907,-2.9124,-2.9162,-2.9217,-2.9247,-2.9251,-2.9261,-2.9259,-2.9265,-2.9199,-2.9184,-2.9257,-2.9257,-2.9257,-2.9257,-2.9257,-2.9257,-2.8636,-2.8702,-2.8721,-2.8805,-2.8836,-2.8897,-2.8924,-2.8962,-2.8996,-2.907,-2.9116,-2.9141,-2.9181,-2.924,-2.9289,-2.9299,-2.9319,-2.9329,-2.9339,-2.9277,-2.9269,-2.9262,-2.9248,-2.9333,-2.9333,-2.94,-2.9401,-2.9401]}]]